Regional Weather Roundup
Issued by NWS Memphis, TN

Home | Current Version | Previous Version | Text Only | Print | Product List | Glossary On
Versions: 1 2 3 4 5 6 7 8 9 10 11 12 13 14 15 16 17 18 19 20 21 22 23 24 25 26 27 28 29 30 31 32 33 34 35 36 37 38 39 40 41 42 43 44 45 46 47 48 49 50
000
ASUS44 KMEG 311410
RWRMEG
MEMPHIS CWA HOURLY WEATHER ROUNDUP
NATIONAL WEATHER SERVICE MEMPHIS TN
900 AM CDT THU JUL 31 2014

...WEST TENNESSEE...

CITY           SKY/WX    TMP DP  RH WIND       PRES   REMARKS
MEMPHIS INTL   CLOUDY    72  66  83 NW8       30.11R
NWS MEMPHIS      N/A     71 N/A N/A MISG        N/A
JACKSON        CLOUDY    72  65  78 CALM      30.11S
LEXINGTON      MOSUNNY   68  63  83 CALM      30.11S
SAVANNAH       PTSUNNY   70  64  83 CALM      30.11S
DYERSBURG      CLOUDY    70  59  68 CALM      30.11S
UNION CITY     CLOUDY    68  64  88 VRB3      30.10S
PARIS          PTSUNNY   72  62  70 SW3       30.12S


...EASTERN ARKANSAS...

CITY           SKY/WX    TMP DP  RH WIND       PRES   REMARKS
JONESBORO      LGT RAIN  67  65  93 SW8       30.12R
WEST MEMPHIS   CLOUDY    69  67  93 W6        30.10R
BATESVILLE     CLOUDY    66  66 100 CALM      30.12R
NEWPORT        LGT RAIN  68  66  94 SW8       30.13S FOG
WALNUT RIDGE   CLOUDY    66  63  88 S10       30.11R
BLYTHEVILLE    CLOUDY    71  69  93 CALM      30.11R
NW BLYTHEVILLE CLOUDY    72  66  83 CALM      30.10
SEARCY         LGT RAIN  66  66 100 VRB5      30.12S FOG
STUTTGART      CLOUDY    66  64  94 E7        30.11R
PINE BLUFF     CLOUDY    68  65  90 NE3       30.10R
MONTICELLO     CLOUDY    69  67  93 E3        30.09R FOG


...NORTH MISSISSIPPI...

CITY           SKY/WX    TMP DP  RH WIND       PRES   REMARKS
TUPELO         CLOUDY    73  63  70 CALM      30.09S
OLIVE BRANCH   PTSUNNY   70  70 100 CALM      30.12R
CLARKSDALE     CLOUDY    70  66  88 CALM      30.11S
CORINTH        CLOUDY    68  64  88 CALM      30.10S
GRENADA        CLOUDY    70  63  78 CALM      30.10S
GREENWOOD      CLOUDY    72  66  81 CALM      30.09S
COLUMBUS       CLOUDY    71  64  79 N3        30.09R
STARKVILLE     CLOUDY    70  64  83 CALM      30.09S
GOLDEN TRIANGL PTSUNNY   72  63  73 N6        30.10R


...SOUTHEAST MISSOURI...

CITY           SKY/WX    TMP DP  RH WIND       PRES   REMARKS
WEST PLAINS    PTSUNNY   70  64  81 E7        30.12S
POPLAR BLUFF   CLOUDY    70  63  78 S8        30.10S
CAPE GIRARDEAU MOSUNNY   70  66  87 CALM      30.11R


...NORTHWEST ALABAMA...

CITY           SKY/WX    TMP DP  RH WIND       PRES   REMARKS
MUSCLE SHOALS  CLOUDY    71  62  73 S5        30.11S


...MIDDLE TENNESSEE...

CITY           SKY/WX    TMP DP  RH WIND       PRES   REMARKS
NASHVILLE      PTSUNNY   72  60  66 E5        30.12S
CLARKSVILLE    SUNNY     72  59  63 E5        30.12R
DICKSON        SUNNY     70  61  73 CALM      30.12R
COLUMBIA       SUNNY     66  63  88 CALM      30.11S
LEWISBURG      PTSUNNY   66  60  81 CALM      30.12R


...WESTERN KENTUCKY...

CITY           SKY/WX    TMP DP  RH WIND       PRES   REMARKS
PADUCAH        MOSUNNY   75  63  66 CALM      30.11R
FORT CAMPBELL  SUNNY     74  59  59 E6        30.12R


...CENTRAL ARKANSAS...

CITY           SKY/WX    TMP DP  RH WIND       PRES   REMARKS
LITTLE ROCK    CLOUDY    69  65  86 E3        30.11R


SKY/WX REPORTED AS FAIR MEANS FEW OR NO CLOUDS BELOW
12 THOUSAND FEET.




USA.gov is the U.S. government's official web portal to all federal, state and local government web resources and services.